Weather in Novoalekseevskoe

Russia / Sverdlovsk Oblast     56°50′59″N   60°07′59″E
temp.,
°C
wind,
m/s
gust,
m/s
humid.,
%
clouds,
%
prec.,
mm/h
press.,
hPa
HPBL,
m
14 may, fri
fri1423:00+17w11555 0.0 102611
02:00+15wsw11575 0.0 102511
05:00+14wsw21610 0.0 102612
08:00+21w234539 0.0 1026208
11:00+26w34325 0.0 10252277
14:00+28w45235 0.0 10242883
17:00+28w45235 0.0 10232987
20:00+23wsw24412 0.0 102374
15 may, sat
sat1523:00+17w285139 0.0 1023123
02:00+15wsw25555 0.0 102378
05:00+15wsw29585 0.0 1023155
08:00+21wsw41046100 0.0 1022369
11:00+26wsw58305 0.0 10211393
14:00+27w6927100 0.0 10202152
17:00+28w5929100 0.0 10192112
20:00+23w374710 0.0 1019220
16 may, sun
sun1623:00+18wsw3116355 0.0 1020207
02:00+19w41457100 0.0 1020392
05:00+17w41360100 0.0 1020305
08:00+22w4114786 0.0 1020418
11:00+27w583012 0.0 10201256
14:00+30w59227 0.0 10192769
17:00+29wsw69215 0.0 10193182
20:00+24w39345 0.0 1018284
17 may, mon
mon1723:00+19wsw38515 0.0 1019135
02:00+17sw310595 0.0 1019169
05:00+16sw310605 0.0 1019171
08:00+21sw513478 0.0 1018490
11:00+27wsw612304 0.0 10182854
14:00+29w71123100 0.0 10173399
17:00+28w51128100 0.0 10163119
20:00+24w410415 0.0 1016661
18 may, tue
tue1823:00+18wsw3116133 0.0 1016235
02:00+16w267399 0.0 101696
05:00+15w2774100 0.1 1016132
08:00+20wnw49550 0.0 1016564
11:00+24wnw5837100 0.0 10151983
14:00+25wnw6932100 0.0 10152522
17:00+25nw6103178 0.0 10152880
20:00+21nnw594158 0.0 1016816